LCO8206 SKBO-SEQM

Flight info

Callsign LCO8206
Flight time 1h 5m
Altitude 23000
Route VAPOM4R OREGA Z009 PPN/N0420F240 W48 MER G675 IPI/N0412F230 G675 QIT DCT
Aircraft B77L/H-SDE1E2E3FGHIJ2J3J4J5M1RWXY/LB1D1

Departure

Time 2026-05-04 19:23
Airport El Dorado International Airport (SKBO)

Arrival

Time 2026-05-04 20:28
Airport Mariscal Sucre International Airport (SEQM)
Time Latitude Longitude Altitude Speed Heading
2026-05-04 19:03 4.69318 -74.14153 8369 ft 0 kts 32°
2026-05-04 19:12 4.69317 -74.14154 8369 ft 2 kts 32°
2026-05-04 19:12 4.69308 -74.14160 8369 ft 1 kts 33°
2026-05-04 19:13 4.69301 -74.14164 8370 ft 1 kts 33°
2026-05-04 19:13 4.69294 -74.14169 8370 ft 1 kts 33°
2026-05-04 19:13 4.69287 -74.14174 8370 ft 1 kts 33°
2026-05-04 19:13 4.69279 -74.14178 8370 ft 1 kts 33°
2026-05-04 19:14 4.69272 -74.14183 8370 ft 1 kts 27°
2026-05-04 19:14 4.69264 -74.14187 8370 ft 1 kts
2026-05-04 19:14 4.69256 -74.14186 8370 ft 1 kts 327°
2026-05-04 19:14 4.69251 -74.14183 8370 ft 0 kts 307°
2026-05-04 19:16 4.69267 -74.14205 8370 ft 8 kts 307°
2026-05-04 19:16 4.69302 -74.14251 8370 ft 8 kts 307°
2026-05-04 19:16 4.69336 -74.14297 8370 ft 8 kts 307°
2026-05-04 19:17 4.69377 -74.14349 8370 ft 11 kts 309°
2026-05-04 19:17 4.69424 -74.14410 8369 ft 11 kts 308°
2026-05-04 19:17 4.69486 -74.14492 8369 ft 24 kts 307°
2026-05-04 19:17 4.69609 -74.14656 8369 ft 30 kts 307°
2026-05-04 19:18 4.69735 -74.14823 8369 ft 30 kts 307°
2026-05-04 19:18 4.69861 -74.14989 8369 ft 30 kts 307°
2026-05-04 19:18 4.69988 -74.15155 8368 ft 30 kts 307°
2026-05-04 19:18 4.70104 -74.15309 8368 ft 30 kts 307°
2026-05-04 19:19 4.70230 -74.15476 8368 ft 30 kts 307°
2026-05-04 19:19 4.70356 -74.15642 8368 ft 30 kts 307°
2026-05-04 19:19 4.70482 -74.15808 8368 ft 30 kts 307°
2026-05-04 19:19 4.70608 -74.15974 8367 ft 30 kts 307°
2026-05-04 19:20 4.70734 -74.16141 8367 ft 30 kts 307°
2026-05-04 19:20 4.70860 -74.16307 8367 ft 30 kts 307°
2026-05-04 19:20 4.70986 -74.16473 8367 ft 30 kts 308°
2026-05-04 19:20 4.71111 -74.16638 8366 ft 27 kts 307°
2026-05-04 19:21 4.71193 -74.16751 8367 ft 14 kts 297°
2026-05-04 19:21 4.71166 -74.16824 8366 ft 6 kts 217°
2026-05-04 19:21 4.71134 -74.16848 8366 ft 6 kts 217°
2026-05-04 19:21 4.71078 -74.16880 8365 ft 13 kts 194°
2026-05-04 19:22 4.71003 -74.16845 8366 ft 13 kts 128°
2026-05-04 19:22 4.70927 -74.16747 8366 ft 29 kts 127°
2026-05-04 19:22 4.70719 -74.16473 8368 ft 78 kts 127°
2026-05-04 19:22 4.70263 -74.15876 8367 ft 136 kts 127°
2026-05-04 19:23 4.69591 -74.14994 8369 ft 180 kts 127°
2026-05-04 19:23 4.68799 -74.13969 8731 ft 187 kts 128°
2026-05-04 19:23 4.67964 -74.12970 9249 ft 188 kts 141°
2026-05-04 19:23 4.66664 -74.12592 9326 ft 215 kts 189°
2026-05-04 19:24 4.65342 -74.13283 9738 ft 219 kts 225°
2026-05-04 19:24 4.64553 -74.14491 10382 ft 212 kts 242°
2026-05-04 19:24 4.63877 -74.15917 10656 ft 232 kts 243°
2026-05-04 19:24 4.63153 -74.17434 11005 ft 245 kts 243°
2026-05-04 19:25 4.62427 -74.18965 11672 ft 246 kts 243°
2026-05-04 19:25 4.61691 -74.20528 12415 ft 246 kts 245°
2026-05-04 19:25 4.61191 -74.22173 12919 ft 258 kts 257°
2026-05-04 19:25 4.60805 -74.24023 13159 ft 283 kts 250°
2026-05-04 19:26 4.60018 -74.25942 13321 ft 313 kts 242°
2026-05-04 19:26 4.58989 -74.27979 13545 ft 343 kts 240°
2026-05-04 19:26 4.57840 -74.30191 13702 ft 373 kts 241°
2026-05-04 19:26 4.56619 -74.32584 14055 ft 394 kts 242°
2026-05-04 19:27 4.55377 -74.35067 14764 ft 403 kts 242°
2026-05-04 19:27 4.54133 -74.37601 15589 ft 408 kts 243°
2026-05-04 19:27 4.52900 -74.40140 16368 ft 414 kts 243°
2026-05-04 19:27 4.51638 -74.42755 17097 ft 420 kts 243°
2026-05-04 19:28 4.50359 -74.45409 17848 ft 426 kts 243°
2026-05-04 19:28 4.49062 -74.48100 18574 ft 430 kts 243°
2026-05-04 19:28 4.47758 -74.50807 19233 ft 434 kts 243°
2026-05-04 19:28 4.46441 -74.53540 19660 ft 436 kts 243°
2026-05-04 19:29 4.45120 -74.56280 19619 ft 436 kts 243°
2026-05-04 19:29 4.43826 -74.58964 19833 ft 431 kts 243°
2026-05-04 19:29 4.42519 -74.61674 20265 ft 434 kts 243°
2026-05-04 19:29 4.41197 -74.64412 20770 ft 439 kts 243°
2026-05-04 19:30 4.39861 -74.67178 21214 ft 443 kts 243°
2026-05-04 19:30 4.38497 -74.69958 21681 ft 445 kts 242°
2026-05-04 19:30 4.37082 -74.72715 22170 ft 447 kts 241°
2026-05-04 19:30 4.35637 -74.75482 22685 ft 450 kts 241°
2026-05-04 19:31 4.34180 -74.78279 22877 ft 456 kts 241°
2026-05-04 19:31 4.32717 -74.81105 22863 ft 456 kts 242°
2026-05-04 19:31 4.31266 -74.83920 22858 ft 454 kts 242°
2026-05-04 19:31 4.29838 -74.86696 22849 ft 453 kts 242°
2026-05-04 19:32 4.28397 -74.89495 22864 ft 453 kts 242°
2026-05-04 19:32 4.26946 -74.92310 22882 ft 454 kts 242°
2026-05-04 19:32 4.25498 -74.95121 22894 ft 454 kts 242°
2026-05-04 19:32 4.24052 -74.97928 22908 ft 455 kts 242°
2026-05-04 19:33 4.22606 -75.00733 22919 ft 455 kts 242°
2026-05-04 19:33 4.21133 -75.03552 22992 ft 455 kts 240°
2026-05-04 19:33 4.19469 -75.06242 22995 ft 454 kts 233°
2026-05-04 19:33 4.17616 -75.08749 23002 ft 453 kts 231°
2026-05-04 19:34 4.15709 -75.11262 23008 ft 453 kts 231°
2026-05-04 19:34 4.13797 -75.13771 23003 ft 454 kts 231°
2026-05-04 19:34 4.11888 -75.16290 23007 ft 453 kts 231°
2026-05-04 19:34 4.09990 -75.18809 23000 ft 453 kts 231°
2026-05-04 19:35 4.08103 -75.21326 23011 ft 452 kts 232°
2026-05-04 19:35 4.06218 -75.23845 23018 ft 452 kts 232°
2026-05-04 19:35 4.04335 -75.26367 23026 ft 452 kts 232°
2026-05-04 19:35 4.02452 -75.28888 23029 ft 452 kts 232°
2026-05-04 19:36 4.00595 -75.31375 23041 ft 452 kts 232°
2026-05-04 19:36 3.98713 -75.33894 23046 ft 452 kts 232°
2026-05-04 19:36 3.96828 -75.36417 23052 ft 452 kts 232°
2026-05-04 19:36 3.94945 -75.38937 23045 ft 453 kts 232°
2026-05-04 19:37 3.93057 -75.41463 23059 ft 453 kts 232°
2026-05-04 19:37 3.91170 -75.43987 23060 ft 453 kts 232°
2026-05-04 19:37 3.89283 -75.46510 23073 ft 452 kts 232°
2026-05-04 19:37 3.87295 -75.48937 23082 ft 450 kts 226°
2026-05-04 19:38 3.85088 -75.51156 23080 ft 449 kts 220°
2026-05-04 19:38 3.82716 -75.53109 23093 ft 448 kts 216°
2026-05-04 19:38 3.80255 -75.55029 23093 ft 449 kts 216°
2026-05-04 19:38 3.77784 -75.56943 23093 ft 449 kts 216°
2026-05-04 19:39 3.75311 -75.58860 23098 ft 450 kts 216°
2026-05-04 19:39 3.72840 -75.60784 23098 ft 450 kts 216°
2026-05-04 19:39 3.70373 -75.62714 23097 ft 450 kts 216°
2026-05-04 19:39 3.67908 -75.64650 23088 ft 450 kts 216°
2026-05-04 19:40 3.65448 -75.66585 23108 ft 449 kts 217°
2026-05-04 19:40 3.63028 -75.68492 23110 ft 448 kts 217°
2026-05-04 19:40 3.60581 -75.70420 23115 ft 448 kts 217°
2026-05-04 19:40 3.58133 -75.72346 23117 ft 447 kts 216°
2026-05-04 19:41 3.55687 -75.74271 23120 ft 447 kts 216°
2026-05-04 19:41 3.53241 -75.76197 23126 ft 448 kts 216°
2026-05-04 19:41 3.50788 -75.78128 23128 ft 449 kts 216°
2026-05-04 19:41 3.48333 -75.80060 23136 ft 449 kts 216°
2026-05-04 19:42 3.45905 -75.81971 23138 ft 450 kts 216°
2026-05-04 19:42 3.43444 -75.83908 23141 ft 450 kts 216°
2026-05-04 19:42 3.40979 -75.85847 23132 ft 451 kts 216°
2026-05-04 19:42 3.38512 -75.87788 23126 ft 451 kts 216°
2026-05-04 19:43 3.36051 -75.89724 23134 ft 451 kts 216°
2026-05-04 19:43 3.33581 -75.91668 23125 ft 451 kts 216°
2026-05-04 19:43 3.31122 -75.93603 23131 ft 450 kts 216°
2026-05-04 19:43 3.28663 -75.95538 23128 ft 449 kts 216°
2026-05-04 19:44 3.26238 -75.97444 23138 ft 448 kts 216°
2026-05-04 19:44 3.23790 -75.99369 23131 ft 448 kts 216°
2026-05-04 19:44 3.21342 -76.01295 23137 ft 448 kts 216°
2026-05-04 19:44 3.18889 -76.03224 23121 ft 449 kts 217°
2026-05-04 19:45 3.16430 -76.05157 23137 ft 450 kts 217°
2026-05-04 19:45 3.13970 -76.07090 23125 ft 450 kts 217°
2026-05-04 19:45 3.11503 -76.09031 23111 ft 450 kts 217°
2026-05-04 19:45 3.09050 -76.10961 23102 ft 449 kts 217°
2026-05-04 19:46 3.06598 -76.12889 23105 ft 447 kts 217°
2026-05-04 19:46 3.04158 -76.14807 23105 ft 446 kts 216°
2026-05-04 19:46 3.01753 -76.16699 23110 ft 446 kts 217°
2026-05-04 19:46 2.99318 -76.18613 23105 ft 446 kts 217°
2026-05-04 19:47 2.96875 -76.20524 23103 ft 446 kts 216°
2026-05-04 19:47 2.94419 -76.22426 23099 ft 447 kts 216°
2026-05-04 19:47 2.91965 -76.24320 23102 ft 447 kts 216°
2026-05-04 19:47 2.89493 -76.26225 23093 ft 447 kts 216°
2026-05-04 19:48 2.87030 -76.28125 23101 ft 448 kts 216°
2026-05-04 19:48 2.84568 -76.30029 23097 ft 448 kts 216°
2026-05-04 19:48 2.82099 -76.31939 23105 ft 449 kts 216°
2026-05-04 19:48 2.79662 -76.33824 23095 ft 449 kts 216°
2026-05-04 19:49 2.77187 -76.35739 23098 ft 450 kts 216°
2026-05-04 19:49 2.74710 -76.37655 23092 ft 451 kts 216°
2026-05-04 19:49 2.72230 -76.39573 23090 ft 451 kts 216°
2026-05-04 19:49 2.69751 -76.41492 23084 ft 450 kts 216°
2026-05-04 19:50 2.67272 -76.43409 23106 ft 449 kts 216°
2026-05-04 19:50 2.64803 -76.45318 23104 ft 449 kts 216°
2026-05-04 19:50 2.62357 -76.47248 23128 ft 448 kts 217°
2026-05-04 19:50 2.59932 -76.49209 23132 ft 448 kts 217°
2026-05-04 19:51 2.57541 -76.51158 23161 ft 449 kts 217°
2026-05-04 19:51 2.55112 -76.53135 23173 ft 453 kts 218°
2026-05-04 19:51 2.52660 -76.55125 23142 ft 453 kts 217°
2026-05-04 19:51 2.50224 -76.57097 23143 ft 448 kts 217°
2026-05-04 19:52 2.47809 -76.59050 23148 ft 446 kts 217°
2026-05-04 19:52 2.45392 -76.61001 23164 ft 447 kts 217°
2026-05-04 19:52 2.42972 -76.62959 23162 ft 449 kts 217°
2026-05-04 19:52 2.40547 -76.64930 23166 ft 450 kts 217°
2026-05-04 19:53 2.38116 -76.66910 23161 ft 450 kts 217°
2026-05-04 19:53 2.35720 -76.68862 23150 ft 451 kts 218°
2026-05-04 19:53 2.33289 -76.70843 23136 ft 451 kts 218°
2026-05-04 19:53 2.30860 -76.72821 23117 ft 450 kts 218°
2026-05-04 19:54 2.28432 -76.74798 23102 ft 450 kts 217°
2026-05-04 19:54 2.26017 -76.76764 23085 ft 449 kts 217°
2026-05-04 19:54 2.23590 -76.78740 23076 ft 448 kts 217°
2026-05-04 19:54 2.21179 -76.80702 23059 ft 447 kts 217°
2026-05-04 19:55 2.18765 -76.82666 23042 ft 447 kts 217°
2026-05-04 19:55 2.16351 -76.84631 23026 ft 447 kts 217°
2026-05-04 19:55 2.13938 -76.86593 23015 ft 447 kts 218°
2026-05-04 19:55 2.11560 -76.88528 23032 ft 447 kts 217°
2026-05-04 19:56 2.09148 -76.90492 23023 ft 447 kts 217°
2026-05-04 19:56 2.06734 -76.92455 23020 ft 448 kts 217°
2026-05-04 19:56 2.04321 -76.94419 23010 ft 448 kts 217°
2026-05-04 19:56 2.01906 -76.96383 23018 ft 448 kts 217°
2026-05-04 19:57 1.99492 -76.98347 23000 ft 448 kts 217°
2026-05-04 19:57 1.97099 -77.00294 23011 ft 447 kts 217°
2026-05-04 19:57 1.94666 -77.02274 23008 ft 447 kts 217°
2026-05-04 19:57 1.92253 -77.04236 23000 ft 447 kts 217°
2026-05-04 19:58 1.89869 -77.06175 23000 ft 447 kts 217°
2026-05-04 19:58 1.87459 -77.08137 23013 ft 447 kts 217°
2026-05-04 19:58 1.85046 -77.10099 23004 ft 447 kts 217°
2026-05-04 19:58 1.82631 -77.12063 23002 ft 447 kts 217°
2026-05-04 19:59 1.80122 -77.13888 22995 ft 446 kts 211°
2026-05-04 19:59 1.77431 -77.15422 23008 ft 445 kts 205°
2026-05-04 19:59 1.74621 -77.16696 22994 ft 443 kts 199°
2026-05-04 19:59 1.71728 -77.17736 23018 ft 442 kts 197°
2026-05-04 20:00 1.68817 -77.18743 23041 ft 442 kts 197°
2026-05-04 20:00 1.65945 -77.19735 23058 ft 443 kts 197°
2026-05-04 20:00 1.63038 -77.20749 23076 ft 443 kts 197°
2026-05-04 20:00 1.60123 -77.21774 23083 ft 444 kts 197°
2026-05-04 20:01 1.57218 -77.22804 23110 ft 444 kts 197°
2026-05-04 20:01 1.54311 -77.23839 23128 ft 444 kts 197°
2026-05-04 20:01 1.51397 -77.24875 23132 ft 444 kts 197°
2026-05-04 20:01 1.48492 -77.25909 23145 ft 444 kts 197°
2026-05-04 20:02 1.45585 -77.26942 23167 ft 444 kts 197°
2026-05-04 20:02 1.42671 -77.27989 23157 ft 445 kts 199°
2026-05-04 20:02 1.39882 -77.29242 23151 ft 447 kts 205°
2026-05-04 20:02 1.37186 -77.30785 23175 ft 448 kts 211°
2026-05-04 20:03 1.34641 -77.32582 23152 ft 449 kts 214°
2026-05-04 20:03 1.32125 -77.34434 23154 ft 449 kts 214°
2026-05-04 20:03 1.29602 -77.36270 23153 ft 449 kts 214°
2026-05-04 20:03 1.27063 -77.38089 23146 ft 448 kts 214°
2026-05-04 20:04 1.24526 -77.39899 23127 ft 448 kts 214°
2026-05-04 20:04 1.21991 -77.41707 23126 ft 447 kts 214°
2026-05-04 20:04 1.19496 -77.43490 23112 ft 447 kts 214°
2026-05-04 20:04 1.16972 -77.45294 23116 ft 446 kts 214°
2026-05-04 20:05 1.14448 -77.47098 23106 ft 446 kts 214°
2026-05-04 20:05 1.11920 -77.48906 23163 ft 447 kts 214°
2026-05-04 20:05 1.09391 -77.50714 23192 ft 447 kts 214°
2026-05-04 20:05 1.06863 -77.52522 23229 ft 447 kts 214°
2026-05-04 20:06 1.04330 -77.54334 23271 ft 447 kts 214°
2026-05-04 20:06 1.01801 -77.56142 23307 ft 447 kts 214°
2026-05-04 20:06 0.99274 -77.57950 23345 ft 447 kts 214°
2026-05-04 20:06 0.96739 -77.59762 23384 ft 447 kts 214°
2026-05-04 20:07 0.94246 -77.61545 23417 ft 447 kts 214°
2026-05-04 20:07 0.91718 -77.63352 23401 ft 447 kts 214°
2026-05-04 20:07 0.89195 -77.65157 23400 ft 447 kts 214°
2026-05-04 20:07 0.86674 -77.66976 23404 ft 447 kts 216°
2026-05-04 20:08 0.84283 -77.68978 23406 ft 448 kts 221°
2026-05-04 20:08 0.82003 -77.71104 23458 ft 449 kts 222°
2026-05-04 20:08 0.79738 -77.73247 23458 ft 449 kts 222°
2026-05-04 20:08 0.77469 -77.75391 23459 ft 449 kts 222°
2026-05-04 20:09 0.75187 -77.77535 23456 ft 449 kts 221°
2026-05-04 20:09 0.72934 -77.79639 23425 ft 449 kts 221°
2026-05-04 20:09 0.70651 -77.81765 23385 ft 450 kts 221°
2026-05-04 20:09 0.68359 -77.83896 23356 ft 449 kts 221°
2026-05-04 20:10 0.66071 -77.86024 23324 ft 449 kts 221°
2026-05-04 20:10 0.63784 -77.88152 23290 ft 450 kts 221°
2026-05-04 20:10 0.61536 -77.90243 23253 ft 450 kts 221°
2026-05-04 20:10 0.59212 -77.92416 23225 ft 449 kts 221°
2026-05-04 20:11 0.56934 -77.94554 23175 ft 449 kts 222°
2026-05-04 20:11 0.54665 -77.96686 23173 ft 448 kts 222°
2026-05-04 20:11 0.52421 -77.98793 23186 ft 451 kts 221°
2026-05-04 20:11 0.50122 -78.00950 23178 ft 454 kts 221°
2026-05-04 20:12 0.47810 -78.03119 23191 ft 458 kts 222°
2026-05-04 20:12 0.45485 -78.05294 23199 ft 458 kts 221°
2026-05-04 20:12 0.43154 -78.07461 23202 ft 458 kts 221°
2026-05-04 20:12 0.40819 -78.09628 23201 ft 459 kts 221°
2026-05-04 20:13 0.38485 -78.11795 23201 ft 455 kts 221°
2026-05-04 20:13 0.36170 -78.13944 23207 ft 455 kts 221°
2026-05-04 20:13 0.33873 -78.16076 23213 ft 456 kts 221°
2026-05-04 20:13 0.31543 -78.18241 23222 ft 458 kts 221°
2026-05-04 20:14 0.29216 -78.20403 23207 ft 456 kts 221°
2026-05-04 20:14 0.26900 -78.22557 23213 ft 456 kts 221°
2026-05-04 20:14 0.24566 -78.24727 23226 ft 458 kts 221°
2026-05-04 20:14 0.22244 -78.26885 23220 ft 456 kts 221°
2026-05-04 20:15 0.19921 -78.29045 23249 ft 457 kts 221°
2026-05-04 20:15 0.17596 -78.31206 23261 ft 456 kts 221°
2026-05-04 20:15 0.15271 -78.33368 23275 ft 457 kts 221°
2026-05-04 20:15 0.12956 -78.35520 23269 ft 453 kts 221°
2026-05-04 20:16 0.10693 -78.37624 23274 ft 449 kts 221°
2026-05-04 20:16 0.08410 -78.39747 23275 ft 448 kts 221°
2026-05-04 20:16 0.06127 -78.41870 23288 ft 448 kts 222°
2026-05-04 20:16 0.03847 -78.43989 23299 ft 449 kts 221°
2026-05-04 20:17 0.01560 -78.46115 23189 ft 449 kts 221°
2026-05-04 20:17 -0.00718 -78.48226 22796 ft 441 kts 220°
2026-05-04 20:17 -0.03220 -78.49860 22633 ft 422 kts 201°
2026-05-04 20:17 -0.05962 -78.50691 22582 ft 405 kts 187°
2026-05-04 20:18 -0.08679 -78.50824 22499 ft 389 kts 174°
2026-05-04 20:18 -0.11327 -78.50567 22447 ft 376 kts 172°
2026-05-04 20:18 -0.13894 -78.50311 22391 ft 365 kts 173°
2026-05-04 20:18 -0.16388 -78.50077 22260 ft 356 kts 173°
2026-05-04 20:19 -0.18811 -78.49864 21876 ft 341 kts 173°
2026-05-04 20:19 -0.21111 -78.49667 21506 ft 323 kts 173°
2026-05-04 20:19 -0.23305 -78.49480 21002 ft 311 kts 173°
2026-05-04 20:19 -0.25424 -78.49298 20494 ft 301 kts 173°
2026-05-04 20:20 -0.27482 -78.49121 20011 ft 292 kts 172°
2026-05-04 20:20 -0.29481 -78.48950 19538 ft 286 kts 173°
2026-05-04 20:20 -0.31444 -78.48782 18855 ft 288 kts 173°
2026-05-04 20:20 -0.33436 -78.48612 18161 ft 287 kts 172°
2026-05-04 20:21 -0.35427 -78.48440 17466 ft 288 kts 171°
2026-05-04 20:21 -0.37357 -78.47971 16627 ft 285 kts 153°
2026-05-04 20:21 -0.40368 -78.45583 15243 ft 274 kts 131°
2026-05-04 20:22 -0.41613 -78.44159 14588 ft 270 kts 129°
2026-05-04 20:22 -0.42445 -78.42514 13855 ft 268 kts 98°
2026-05-04 20:22 -0.42131 -78.40825 13497 ft 239 kts 56°
2026-05-04 20:22 -0.40882 -78.39782 13386 ft 236 kts 31°
2026-05-04 20:23 -0.39398 -78.39040 12942 ft 241 kts 27°
2026-05-04 20:23 -0.37894 -78.38339 12623 ft 235 kts 27°
2026-05-04 20:23 -0.36438 -78.37663 12323 ft 227 kts 27°
2026-05-04 20:23 -0.35020 -78.36997 12071 ft 223 kts 26°
2026-05-04 20:24 -0.33628 -78.36337 11816 ft 220 kts 26°
2026-05-04 20:24 -0.32263 -78.35690 11547 ft 215 kts 26°
2026-05-04 20:24 -0.30932 -78.35060 11274 ft 209 kts 25°
2026-05-04 20:24 -0.29567 -78.34698 11026 ft 203 kts
2026-05-04 20:25 -0.28175 -78.34759 10820 ft 204 kts 358°
2026-05-04 20:25 -0.26729 -78.34823 10513 ft 210 kts 358°
2026-05-04 20:25 -0.25298 -78.34879 10220 ft 204 kts 358°
2026-05-04 20:25 -0.23936 -78.34938 9954 ft 187 kts 359°
2026-05-04 20:26 -0.22685 -78.34993 9735 ft 178 kts 358°
2026-05-04 20:26 -0.21449 -78.35045 9500 ft 176 kts 358°
2026-05-04 20:26 -0.20256 -78.35098 9254 ft 168 kts 358°
2026-05-04 20:26 -0.19114 -78.35148 9029 ft 163 kts 358°
2026-05-04 20:27 -0.18355 -78.35181 8881 ft 165 kts 357°
2026-05-04 20:27 -0.17922 -78.35200 8783 ft 164 kts 358°
2026-05-04 20:27 -0.16808 -78.35249 8500 ft 157 kts 358°
2026-05-04 20:27 -0.15763 -78.35292 8253 ft 148 kts 357°
2026-05-04 20:28 -0.14703 -78.35345 8062 ft 155 kts 356°
2026-05-04 20:28 -0.13632 -78.35398 7898 ft 148 kts
2026-05-04 20:28 -0.12768 -78.35429 7865 ft 92 kts 358°
2026-05-04 20:28 -0.12462 -78.35529 7837 ft 18 kts 328°
2026-05-04 20:29 -0.12438 -78.35544 7840 ft 5 kts 328°
2026-05-04 20:29 -0.12405 -78.35564 7838 ft 6 kts 328°
2026-05-04 20:29 -0.12394 -78.35571 7839 ft 0 kts 328°
2026-05-04 20:29 -0.12391 -78.35573 7839 ft 1 kts 328°
2026-05-04 20:30 -0.12385 -78.35576 7837 ft 1 kts 328°
2026-05-04 20:30 -0.12382 -78.35588 7838 ft 3 kts 274°
2026-05-04 20:30 -0.12405 -78.35605 7836 ft 5 kts 199°
2026-05-04 20:30 -0.12443 -78.35611 7838 ft 9 kts 182°
2026-05-04 20:31 -0.12505 -78.35610 7839 ft 9 kts 179°
2026-05-04 20:31 -0.12567 -78.35608 7840 ft 9 kts 177°
2026-05-04 20:31 -0.12630 -78.35606 7848 ft 9 kts 177°
2026-05-04 20:31 -0.12681 -78.35634 7841 ft 9 kts 234°
2026-05-04 20:32 -0.12731 -78.35676 7840 ft 9 kts 199°
2026-05-04 20:32 -0.12795 -78.35678 7841 ft 9 kts 180°
2026-05-04 20:32 -0.12825 -78.35708 7842 ft 5 kts 259°
2026-05-04 20:32 -0.12824 -78.35743 7845 ft 5 kts 269°
2026-05-04 20:33 -0.12825 -78.35765 7848 ft 0 kts 269°